Terug naar catalogus

AISHENXING LSP 1

ActiefWetenschapSSO
NORAD 60014·PAYLOAD·🇨🇳 China
Deze satellietnaam is nog niet bevestigd door officiële bronnen.

Gelanceerd Jun 6, 2024 vanaf Jiuquan Satellite Launch Center

Loading…

Volgende Passages (komende 24 uur)

TLE

VerouderdSource: Space-Track

Epoch: Aug 24, 2026, 07:03 UTC

1 60014U 24110C   26236.29396498  .00001738  00000-0  15034-3 0  9993
2 60014  97.5420 309.3147 0009309 280.0498  79.9675 14.98408334112000

Volg AISHENXING LSP 1 in realtime met AllMySat

Download on the App Store